KB9IQX-WX Weather Reports


time (UTC)temp
C
wind
direction
speed
KPH
gust
KPH
rain 1hr
cm
rain 24hr
cm
rain mn
cm
humidity
%
barometer
mb
20260505175623 18 0.0 0.0 0.00 0.00 0.00 3 1016.0
20260505172622 18 0.0 0.0 0.00 0.00 0.00 3 1016.1
20260505165621 17 0.0 0.0 0.00 0.00 0.00 3 1015.9
20260505162622 17 0.0 0.0 0.00 0.00 0.00 3 1015.8
20260505152621 17 0.0 0.0 0.00 0.00 0.00 3 1015.6
20260505122620 16 0.0 0.0 0.00 0.00 0.00 4 1014.0
20260505115621 16 0.0 0.0 0.00 0.00 0.00 4 1013.9
20260505112620 17 0.0 0.0 0.00 0.00 0.00 4 1013.7
20260505095620 16 0.0 0.0 0.00 0.00 0.00 4 1013.2
20260505092620 16 0.0 0.0 0.00 0.00 0.00 4 1013.0
20260505085621 16 0.0 0.0 0.00 0.00 0.00 4 1012.7
20260505082621 16 0.0 0.0 0.00 0.00 0.00 4 1012.6
20260505075621 16 0.0 0.0 0.00 0.00 0.00 4 1012.5
20260505072621 17 0.0 0.0 0.00 0.00 0.00 4 1012.2
20260505065620 18 0.0 0.0 0.00 0.00 0.00 3 1011.7
20260505062621 18 0.0 0.0 0.00 0.00 0.00 3 1011.5
20260505055622 17 0.0 0.0 0.00 0.00 0.00 3 1011.2
20260505052621 19 0.0 0.0 0.00 0.00 0.00 3 1011.0
20260505035622 23 0.0 0.0 0.00 0.00 0.00 2 1009.7
20260505032622 24 0.0 0.0 0.00 0.00 0.00 2 1009.2
20260505025622 26 0.0 0.0 0.00 0.00 0.00 2 1008.9
20260505022621 27 0.0 0.0 0.00 0.00 0.00 2 1008.6
20260505015623 28 0.0 0.0 0.00 0.00 0.00 2 1008.6
20260505012621 30 0.0 0.0 0.00 0.00 0.00 2 1008.6
20260505005621 31 0.0 0.0 0.00 0.00 0.00 1 1008.6
20260505002620 32 0.0 0.0 0.00 0.00 0.00 1 1008.6
20260504235621 33 0.0 0.0 0.00 0.00 0.00 1 1008.7
20260504232621 33 0.0 0.0 0.00 0.00 0.00 1 1008.8
20260504225621 32 0.0 0.0 0.00 0.00 0.00 1 1008.9
20260504222621 35 0.0 0.0 0.00 0.00 0.00 1 1009.4
20260504215620 36 0.0 0.0 0.00 0.00 0.00 1 1009.6
20260504212622 36 0.0 0.0 0.00 0.00 0.00 1 1009.7
20260504205622 34 0.0 0.0 0.00 0.00 0.00 1 1009.9
20260504202621 35 0.0 0.0 0.00 0.00 0.00 1 1010.0
20260504195621 35 0.0 0.0 0.00 0.00 0.00 1 1010.0
20260504192621 35 0.0 0.0 0.00 0.00 0.00 1 1010.2
20260504185623 32 0.0 0.0 0.00 0.00 0.00 1 1010.3
20260504182622 32 0.0 0.0 0.00 0.00 0.00 1 1010.5